Location: Mannheim
(49.4880°N, 8.4650°E)
Time: 21:17:58
(UTC+02:00)

ISS - Pass Details

Date: 27 May 2023
Orbit: 412 x 419 km, 51.6° (Epoch: 28 May)

Event Time Altitude Azimuth Distance (km) Brightness Sun altitude
Rises 21:57:41 0° 289° (WNW) 2,356 1.5 -5.8°
Reaches altitude 10° 21:59:48 10° 284° (WNW) 1,492 0.1 -6.0°
Maximum altitude 22:03:03 50° 208° (SSW) 541 -3.3 -6.4°
Drops below altitude 10° 22:06:18 10° 132° (SE) 1,489 -1.7 -6.8°
Enters shadow 22:06:29 - 131° (SE) 1,563 -1.6 -6.8°
